Regional Weather Roundup
Issued by NWS Wakefield, VA

Home | Current Version | Previous Version | Text Only | Print | Product List | Glossary Off
Versions: 1 2 3 4 5 6 7 8 9 10 11 12 13 14 15 16 17 18 19 20 21 22 23 24 25 26 27

000
ASUS41 KAKQ 230415
RWRAKQ

REGIONAL WEATHER ROUNDUP
NATIONAL WEATHER SERVICE WAKEFIELD VA
1200 AM EDT THU MAR 23 2017

Note: "fair" indicates few or no clouds below 12,000 feet with no
significant weather and/or obstructions to visibility. * = Denotes
station may not report precipitation (e.g., rain,snow,etc.),
thunder or fog.

VAZ042-051-052>054-056-230500-
NORTHERN VIRGINIA

CITY           SKY/WX    TMP DP  RH WIND       PRES   REMARKS
WASH NATIONAL  CLEAR     38   9  30 N9        30.49R
DULLES         PTCLDY    35   6  29 N8        30.47S
FORT BELVOIR   CLEAR     34   7  32 N3        30.48R
QUANTICO       CLEAR     38   9  30 N10       30.49R
FREDERICKSBRG* CLEAR     38  11  32 N3        30.48R
STAFFORD*      PTCLDY    36   5  28 CALM      30.51S
WARRENTON      CLEAR     34   6  30 N8        30.46S
CULPEPER*      CLEAR     33  12  40 CALM      30.48R
MANASSAS*      CLEAR     35   7  31 NE5       30.48S
LEESBURG*      PTCLDY    34  10  37 N3        30.48S
WINCHESTER     CLEAR     32   5  32 CALM      30.46S
FRONT ROYAL*   CLEAR     32  10  40 N3        30.45S
LURAY*         CLEAR     32  14  47 CALM      30.44S
$$

VAZ048-049-060>072-079>083-230500-
CENTRAL AND SOUTH CENTRAL VIRGINIA

CITY           SKY/WX    TMP DP  RH WIND       PRES   REMARKS
RICHMOND       CLEAR     38   9  30 N9        30.46R
CHESTERFIELD*  FAIR      39   3  22 NE7       30.47R
PETERSBURG*    PTCLDY    34  13  41 NE6       30.46R
HANOVER        CLEAR     38   6  26 VRB3      30.48R
TAPPAHANNOCK*  CLEAR     37  -8  14 CALM      30.47R
QUINTON*       FAIR      38   9  30 CALM      30.45R
CHARLOTTSVILLE CLEAR     39   6  25 N6        30.44R
GORDONSVILLE*  PTCLDY    35  10  35 NE3       30.44S
ORANGE*        PTCLDY    34  10  37 N5        30.47R
LOUISA*        CLEAR     39  12  33 NE5       30.44R
BUMPASS*       FAIR      35   8  32 CALM      30.46R
FARMVILLE*     CLEAR     35  16  44 NE5       30.44R
CREWE*         FAIR      37  13  36 CALM      30.44R
FORT PICKETT*  FAIR      37   0  20 N6        30.44R
CHASE CITY*    FAIR      40   8  27 CALM      30.45R
CLARKSVILLE*   FAIR      39  16  38 NE5       30.44R
SOUTH HILL*    CLEAR     36  18  47 N3        30.49R
LAWRENCEVILLE* FAIR      36  16  44 CALM      30.44R
EMPORIA*       CLEAR     34  18  51 CALM      30.47R
$$

VAZ088>098-230500-
SOUTHEAST VIRGINIA

CITY           SKY/WX    TMP DP  RH WIND       PRES   REMARKS
NORFOLK        CLEAR     42  21  43 NE14      30.44R
VIRGINIA BEACH CLEAR     40  15  36 N13       30.44R
NORFOLK NAVAL  CLEAR     43  19  38 N15G22    30.46R
WEST POINT*    CLEAR     37  10  31 N3        30.48R
SALUDA*        FAIR      39  15  38 N7        30.45R
NEWPORT NEWS   CLEAR     40  18  41 N8        30.45R
LANGLEY AFB    CLEAR     41  21  44 NE10G17   30.44R
FORT EUSTIS    CLEAR     38  16  39 N3        30.43R
WILLIAMSBURG*  CLEAR     37  16  41 CALM      30.46R
HR EXEC AP*    FAIR      41  19  42 NE5       30.44R
FRANKLIN*      CLEAR     32  20  61 CALM      30.46R
US460-WAKEFLD  CLEAR     33  17  51 CALM      30.45R
$$

VAZ020-022-025-037-045-230500-
WEST CENTRAL AND SOUTHWEST VIRGINIA

CITY           SKY/WX    TMP DP  RH WIND       PRES   REMARKS
STAUNTON*      CLEAR     31  10  40 CALM      30.45R
WAYNESBORO*    CLEAR     30  10  43 CALM      30.43R
HOT SPRINGS VA CLEAR     27   5  39 CALM      30.33R
LYNCHBURG      CLEAR     36  13  38 N6        30.43R
DANVILLE       CLEAR     36  16  44 E3        30.44R
SOUTH BOSTON*  FAIR      39  13  34 CALM      30.45R
MARTINSVILLE   CLEAR     36  16  44 E6        30.45R
ROANOKE        CLEAR     41  11  29 NE7       30.43R
BLACKSBURG     CLEAR     33  15  49 CALM      30.41S
DUBLIN*        CLEAR     35  13  39 CALM      30.40S
MARION*        CLEAR     32  20  63 CALM      30.40R
HILLSVILLE*    CLEAR     34  15  46 CALM      30.35S
RICHLANDS*     FAIR      34  15  46 CALM      30.37S
WISE*          CLEAR     32  14  47 CALM      30.37S
ABINGDON*      CLEAR     39  18  42 E7        30.36S
$$

MDZ021>025-VAZ099-100-230500-
SOUTHERN MARYLAND AND THE DELMARVA PENINSULA

CITY           SKY/WX    TMP DP  RH WIND       PRES   REMARKS
PATUXENT RIVER CLEAR     34  15  46 NE13      30.47R WCI  25
BAY BRIDGE APT CLEAR     34   7  32 NE7       30.49R
LEONARDTOWN    CLEAR     36  14  41 NE3       30.48R
DOVER          CLEAR     28   9  44 N9        30.47R
GEORGETOWN     CLEAR     32   7  35 N6        30.48R
EASTON         CLEAR     30   8  38 E6        30.52R
CAMBRIDGE      CLEAR     34   3  27 N12       30.48R
SALISBURY      PTCLDY    30   7  37 N5        30.47R
OCEAN CITY     CLEAR     34   9  35 N10       30.46R
WALLOPS ISLAND CLEAR     33   7  33 N10       30.46R WCI  25
ACCOMACK*      CLEAR     34  11  37 N7        30.45R
$$

NCZ012>017-030>032-230500-
NORTH CENTRAL AND EASTERN NORTH CAROLINA

CITY           SKY/WX    TMP DP  RH WIND       PRES   REMARKS
ROANOKE RAPIDS FAIR      34  21  60 CALM      30.45R
RALEIGH        PTCLDY    44  13  28 E8        30.43R
ELIZABETH CITY CLEAR     40  23  50 N9        30.45R
AHOSKIE*       NOT AVBL
EDENTON*       CLEAR     35  29  78 CALM      30.45R
CURRITUCK*     CLEAR     43  20  41 NE12      30.44R
KILL DEVIL HLS NOT AVBL
MANTEO         CLEAR     41  29  63 NE9       30.44R
CAPE HATTERAS  CLEAR     43  25  49 NE7       30.43R
TARBORO*       NOT AVBL
GOLDSBORO      CLEAR     43  19  38 NE7       30.42R
WASHINGTON     CLEAR     38  29  70 CALM      30.45R
GREENVILLE     CLEAR     34  27  75 CALM      30.44R
NEW BERN       CLEAR     41  30  65 E6        30.45R
WILMINGTON     CLEAR     42  31  64 NE9       30.41R
$$

VAZ048-230500-
ELSEWHERE

CITY           SKY/WX    TMP DP  RH WIND       PRES   REMARKS
HARRISBURG PA  CLEAR     29   4  34 N5        30.48R
BALTIMORE      CLEAR     33   2  26 N6        30.48R
ANNAPOLIS      CLEAR     37  11  34 N8        30.48S
ANDREWS AFB    CLEAR     32   7  34 N10       30.46R WCI  23
PHILADELPHIA   CLEAR     29  -5  22 N13       30.50R WCI  19
HENDERSON NC   CLEAR     35  16  46 CALM      30.43R
GREENSBORO     CLEAR     44  13  28 E10       30.40R
ROCKY MOUNT    PTCLDY    35  25  66 CALM      30.44R
$$

VAZ100-230500-
MARINE

STATION/POSITION TIME  TEMP    WIND        PRES    WAVE   SWELL
                       AIR SEA DIR/SP/G            HT/PER HT/PER
                 (UTC) (F)     (DEG/KT/KT) (MB)    (FT/S) (FT/S)
CAPE MAY NJ      0348   32 42   20/  5/ 10 1031.4R
LEWES DE         0348   35 43   20/ 20/ 25 1031.9R
OCEAN-CITY-INLET 0348   36 46   10/ 15/ 19 1031.8R
WACHAPREAGUE VA  0348   35 51   20/  6/ 10 1031.1R
THOMAS POINT MD  0400   36 43   30/ 16/ 18   N/A
GOOSES REEF MD   0350   38      70/ 14/ 16 1032.2R
COVE POINT MD    0348   36      50/ 12/ 17 1032.4R
BISHOPS HEAD MD  0348   36 46   30/ 13/ 17 1031.9R
PINEY POINT MD   0348           70/  7/  8   N/A
POTOMAC MD       0350   39      40/ 14/ 19 1031.1R
CAMBRIDGE MD     0348   35 44   30/ 11/ 13 1031.3R
LEWISETTA VA     0348   39 48   60/ 12/ 16 1031.3R
RAPPAHANNOCK LGT 0348           20/ 22/ 24 1031.4R
STINGRAY PT      0350   41      60/ 17/ 21 1031.0R
YORK RVR RNG VA  0348   43      40/ 18/ 21 1030.0R
YORKTOWN VA      0348   42 49  360/ 11/ 12 1030.8R
JAMESTOWN VA     0350   41     360/  6/ 10   N/A
DOMINION TERM VA 0348   43      40/  5/ 10 1031.0R
KIPTOPEKE VA     0348      47   40/  5/  9   N/A
CHES BAY BRIDGE  0348   42 47   40/ 16/ 19 1030.6R
CAPE HENRY VA    0348   42      30/ 19/ 21   N/A
WILLOUBY STN VA  0348   43      10/ 17/ 19 1031.5R
S CRANEY ISL VA  0348   44      30/ 13/ 17 1030.4R
CAPE HENRY BUOY  0342      46                N/A     6/ 7   2/11
CAPE CHARLES BUO 0351      45                N/A     5/ 7   2/11
OFFSHORE WE BUOY 0351      46                N/A     7/ 8   2/11
64NM E OF VA BCH 0350   42 49   10/ 21/ 27 1029.3R  10/ 9   5/ 9
DUCK PIER NC     0348   43 48   40/ 16/ 19 1030.1R
44100 DUCK FRF   0335      47                N/A     6/ 8   2/11
44056 DUCK FRF   0330      47                N/A     6/ 8   2/11
OREGON INLET NC  0348           30/  9/ 14 1030.6R
HATTERAS NC      0348   44 55   30/ 10/ 13 1030.1R
DIAMOND SHLS NC  0350   47 74   30/ 19/ 25 1029.8R  11/11   8/11
CAPE LOOKOUT NC  0300   48      40/ 22/ 26 1029.2R
$$




USA.gov is the U.S. government's official web portal to all federal, state and local government web resources and services.